This is the latest recevied weather packets stored in our database for station/object N3TJJ-11. If no packets are shown the sender has not sent any weather packets the latest 10 day(s).
| Time | Temp. | Humidity | Pressure | Rain* | Wind** | Luminosity | Snow |
|---|---|---|---|---|---|---|---|
| 1778136822 | 9.44° C | 92% | 1008.7 hPa | 1.27 mm | - | - | - |
| 1778136222 | 9.44° C | 92% | 1008.7 hPa | 1.27 mm | - | - | - |
| 1778135625 | 8.89° C | 91% | 1008.9 hPa | 1.02 mm | - | - | - |
| 1778135022 | 9.44° C | 91% | 1008.7 hPa | 1.02 mm | - | - | - |
| 1778134422 | 9.44° C | 92% | 1008.7 hPa | 1.27 mm | - | - | - |
| 1778133823 | 9.44° C | 92% | 1008.8 hPa | 2.03 mm | - | - | - |
| 1778133222 | 9.44° C | 92% | 1008.8 hPa | 2.03 mm | - | - | - |
| 1778132622 | 10° C | 92% | 1008.7 hPa | 2.03 mm | - | - | - |
| 1778132030 | 10° C | 92% | 1008.4 hPa | 2.03 mm | - | - | - |
| 1778131422 | 10° C | 91% | 1008.7 hPa | 2.03 mm | - | - | - |
| 1778130822 | 10° C | 91% | 1008.8 hPa | 1.27 mm | - | - | - |
| 1778130225 | 10.56° C | 90% | 1008.7 hPa | 0.51 mm | - | - | - |
| 1778129622 | 10.56° C | 90% | 1008.6 hPa | 0 mm | - | - | - |
| 1778129022 | 10.56° C | 89% | 1008.3 hPa | 0 mm | - | - | - |
| 1778128422 | 11.11° C | 89% | 1008.2 hPa | 0 mm | - | - | - |
| 1778127822 | 11.67° C | 89% | 1008.1 hPa | 0 mm | - | - | - |
| 1778127222 | 11.67° C | 89% | 1007.8 hPa | 0 mm | - | - | - |
| 1778126622 | 11.67° C | 89% | 1007.9 hPa | 0.25 mm | - | - | - |
| 1778126022 | 12.22° C | 90% | 1007.5 hPa | 0.25 mm | - | - | - |
| 1778125422 | 12.78° C | 90% | 1007.4 hPa | 0.25 mm | - | - | - |
| 1778124822 | 12.78° C | 90% | 1008.2 hPa | 0.25 mm | - | - | - |
| 1778124221 | 12.78° C | 90% | 1007.8 hPa | 0.25 mm | - | - | - |
| 1778123622 | 12.78° C | 90% | 1007.7 hPa | 0.25 mm | - | - | - |
| 1778123501 | 12.78° C | 90% | 1007.7 hPa | 0 mm | - | - | - |
| 1778123026 | 12.78° C | 90% | 1007.6 hPa | 0 mm | - | - | - |
* Rain latest hour (hover to see other rain measurements)
** Current wind speed in m/s (hover to see current wind gust speed)